Terminal Aerodrome Forecast
Issued by NWS Austin/San Antonio, TX

Home | Current Version | Previous Version | Text Only | Print | Product List | Glossary On
Versions: 1 2 3 4 5 6 7 8 9 10 11 12 13 14 15 16 17 18 19 20
324
FTUS44 KEWX 230153 AAA
TAFDRT
TAF AMD
KDRT 230153Z 2302/2324 12014G24KT P6SM SCT080 BKN090
     FM230900 12012KT P6SM BKN020
     FM231700 13014G24KT P6SM BKN040=

USA.gov is the U.S. government's official web portal to all federal, state and local government web resources and services.